Flag for China Weather past 2 weeks in Kashgar, Xinjiang, China

Now
21 °F

Clear.


Feels Like: 12 °F
Forecast: 15 / 36 °F
Wind: 8 mph from Northwest

Location: Kashi Airport

Current Time: Dec 27, 2014 at 6:10:12 AM

Latest Report: Dec 27, 2014 at 5:00 AM


Visibility: 4 mi

Pressure: 30.51 "Hg

Humidity: 63%

Dew point: 10 °F

Location of KashgarLocation

Historic Weather in Kashgar — Graph

°F

Kashgar temperature yesterday

Maximum temperature yesterday: 43 °F (at 6:00 PM)
Minimum temperature yesterday: 18 °F (at 10:00 AM)
Average temperature yesterday: 28 °F

Past Weeks' High & Low Weather Summary

 TemperatureHumidityPressure
High43 °F (Dec 26, 6:00 PM)92% (Dec 12, 8:00 AM)30.80 "Hg (Dec 12, 8:00 AM)
Low7 °F (Dec 16, 10:00 AM)31% (Dec 26, 5:00 PM)30.07 "Hg (Dec 22, 5:00 PM)
Average20 °F67%30.35 "Hg
* Reported Dec 12 4:00 AM — Dec 27 4:00 AM, Kashgar, Weather by CustomWeather, © 2014

Note: Actual official high and low records may vary slightly from our data, if they occured in-between our weather recording intervals... More about our weather records

Advertising

Kashgar weather history for previous 24 hours

 ConditionsComfort  
Time TempWeatherWind HumidityBarometerVisibility
4:00 AM
Dec 27
23 °FCold.3 mph63%30.51 "Hg3 mi
3:00 AM25 °FCold.6 mph59%30.48 "Hg2 mi
2:00 AM28 °FChilly.No wind51%30.45 "Hg2 mi
1:00 AM27 °FChilly.3 mph54%30.42 "Hg3 mi
12:00 AM28 °FChilly.3 mph55%30.42 "Hg2 mi
11:00 PM
Dec 26
30 °FClear.3 mph51%30.39 "Hg4 mi
10:00 PM34 °FClear.10 mph41%30.39 "Hg4 mi
9:00 PM30 °FClear.3 mph51%30.39 "Hg4 mi
8:00 PM36 °FClear.No wind38%30.36 "Hg4 mi
7:00 PM39 °FClear.No wind36%30.33 "Hg4 mi
6:00 PM43 °FClear.3 mph31%30.33 "Hg6 mi
5:00 PM41 °FClear.3 mph31%30.33 "Hg4 mi
4:00 PM37 °FClear.3 mph35%30.33 "Hg4 mi
3:00 PM34 °FClear.6 mph41%30.33 "Hg4 mi
2:00 PM32 °FClear.3 mph47%30.39 "Hg4 mi
1:00 PM27 °FClear.6 mph54%30.39 "Hg4 mi
12:00 PM25 °FClear.No wind59%30.39 "Hg5 mi
11:00 AM19 °FClear.6 mph68%30.36 "Hg4 mi
10:00 AM18 °FClear.6 mph68%30.33 "Hg4 mi
9:00 AM19 °FClear.3 mph68%30.30 "Hg4 mi
8:00 AM19 °FClear.No wind63%30.27 "Hg4 mi
7:00 AM21 °FClear.6 mph63%30.27 "Hg4 mi
6:00 AM21 °FClear.8 mph63%30.24 "Hg4 mi
Weather by CustomWeather, © 2014

See weather overviewHow to use our weather pages